Dades meteomassalio
Diari Summary for Marc 17, 2017 Units:  Metric    English   Both
« Previous Day
Next Day »
Diari Semanal Mensual Anual Personalitzat
  Maxima: Minima: Mijana:
Temperatura: -17.8 °C -16.8 °C -11.6 °C
Rosada: -17.8 °C -18.6 °C -16.6 °C
Humitat: Humidity % 22 % 60 %
Velocitat del vent: 0 km/h 0 km/h 4.8 km/h
Racha vent: 0 km/h - -
Vent:- - East
Pressio: 0 hPa 34554.1 hPa -
Pluja: 0 mm    
Historical Graphs
 
 
Tabular Data for Marc 17, 2017
Time Temperature Dew Point Pressure Wind Wind Speed Wind Gust Humidity Rainfall Rate (Hourly) solar Conditions
-17.8 °C -17.8 °C 0 hPa Calm     Humidity % 0 mm SolarRadiationWatts/m^2 W/m2 Conditions
00:05 -14.2 °C -16 °C 34645.6 hPa Calm     80 % 0 mm 0.0 W/m2 RA
00:10 -14.3 °C -16.1 °C 34645.6 hPa Calm     80 % 0 mm 0.0 W/m2 CLR
00:15 -14.3 °C -16.1 °C 34659.1 hPa Calm     80 % 0 mm 0.0 W/m2 CLR
00:20 -14.4 °C -16.1 °C 34659.1 hPa Calm     81 % 0 mm 0.0 W/m2 CLR
00:25 -14.4 °C -16.1 °C 34659.1 hPa Calm     81 % 0 mm 0.0 W/m2 CLR
00:30 -14.5 °C -16.1 °C 34659.1 hPa Calm     82 % 0 mm 0.0 W/m2 CLR
00:35 -14.6 °C -16.2 °C 34659.1 hPa Calm     82 % 0 mm 0.0 W/m2 CLR
00:40 -14.6 °C -16.2 °C 34659.1 hPa Calm     81 % 0 mm 0.0 W/m2 CLR
00:45 -14.6 °C -16.3 °C 34659.1 hPa Calm     80 % 0 mm 0.0 W/m2 CLR
00:50 -14.6 °C -16.3 °C 34659.1 hPa Calm     80 % 0 mm 0.0 W/m2 CLR
00:54 -14.7 °C -16.4 °C 34659.1 hPa Calm     80 % 0 mm 0.0 W/m2 CLR
01:00 -14.7 °C -16.5 °C 34659.1 hPa Calm     79 % 0 mm 0.0 W/m2 CLR
01:05 -14.6 °C -16.5 °C 34659.1 hPa Calm     79 % 0 mm 0.0 W/m2 CLR
01:10 -14.7 °C -16.4 °C 34659.1 hPa Calm     80 % 0 mm 0.0 W/m2 CLR
01:15 -14.8 °C -16.5 °C 34659.1 hPa Calm     80 % 0 mm 0.0 W/m2 CLR
01:20 -14.8 °C -16.5 °C 34659.1 hPa Calm     81 % 0 mm 0.0 W/m2 CLR
01:25 -14.9 °C -16.6 °C 34659.1 hPa Calm     81 % 0 mm 0.0 W/m2 CLR
01:30 -14.9 °C -16.6 °C 34659.1 hPa Calm     82 % 0 mm 0.0 W/m2 CLR
01:35 -15.1 °C -16.6 °C 34659.1 hPa Calm     82 % 0 mm 0.0 W/m2 CLR
01:40 -15.1 °C -16.7 °C 34659.1 hPa Calm     82 % 0 mm 0.0 W/m2 CLR
01:45 -15.2 °C -16.6 °C 34659.1 hPa Calm     83 % 0 mm 0.0 W/m2 CLR
01:50 -15.2 °C -16.7 °C 34659.1 hPa Calm     83 % 0 mm 0.0 W/m2 CLR
01:55 -15.3 °C -16.6 °C 34659.1 hPa Calm     84 % 0 mm 0.0 W/m2 CLR
02:00 -15.3 °C -16.8 °C 34645.6 hPa Calm     83 % 0 mm 0.0 W/m2 CLR
02:05 -15.3 °C -16.7 °C 34645.6 hPa Calm     84 % 0 mm 0.0 W/m2 CLR
02:10 -15.3 °C -16.7 °C 34659.1 hPa Calm     84 % 0 mm 0.0 W/m2 CLR
02:15 -15.4 °C -16.8 °C 34645.6 hPa Calm     84 % 0 mm 0.0 W/m2 CLR
02:20 -15.4 °C -16.8 °C 34659.1 hPa Calm     84 % 0 mm 0.0 W/m2 CLR
02:25 -15.5 °C -16.8 °C 34659.1 hPa Calm     85 % 0 mm 0.0 W/m2 CLR
02:30 -15.5 °C -16.8 °C 34659.1 hPa Calm     85 % 0 mm 0.0 W/m2 CLR
02:35 -15.6 °C -16.8 °C 34645.6 hPa Calm     85 % 0 mm 0.0 W/m2 CLR
02:40 -15.6 °C -16.8 °C 34645.6 hPa Calm     85 % 0 mm 0.0 W/m2 CLR
02:45 -15.6 °C -16.9 °C 34645.6 hPa Calm     84 % 0 mm 0.0 W/m2 CLR
02:50 -15.6 °C -17 °C 34645.6 hPa Calm     84 % 0 mm 0.0 W/m2 CLR
02:55 -15.7 °C -17 °C 34645.6 hPa Calm     84 % 0 mm 0.0 W/m2 CLR
03:00 -15.7 °C -16.9 °C 34645.6 hPa Calm     85 % 0 mm 0.0 W/m2 CLR
03:05 -15.7 °C -17 °C 34645.6 hPa Calm     85 % 0 mm 0.0 W/m2 CLR
03:10 -15.8 °C -17.1 °C 34645.6 hPa Calm     85 % 0 mm 0.0 W/m2 CLR
03:15 -15.8 °C -17.1 °C 34645.6 hPa Calm     85 % 0 mm 0.0 W/m2 CLR
03:20 -15.8 °C -17.1 °C 34645.6 hPa Calm     85 % 0 mm 0.0 W/m2 CLR
03:25 -15.8 °C -17.1 °C 34645.6 hPa Calm     85 % 0 mm 0.0 W/m2 CLR
03:30 -15.9 °C -17.1 °C 34645.6 hPa Calm     86 % 0 mm 0.0 W/m2 CLR
03:35 -15.9 °C -17.1 °C 34645.6 hPa Calm     86 % 0 mm 0.0 W/m2 CLR
03:40 -15.9 °C -17.1 °C 34645.6 hPa Calm     86 % 0 mm 0.0 W/m2 CLR
03:45 -16 °C -17.2 °C 34645.6 hPa Calm     86 % 0 mm 0.0 W/m2 CLR
03:50 -16 °C -17.2 °C 34645.6 hPa Calm     86 % 0 mm 0.0 W/m2 CLR
03:55 -16.1 °C -17.2 °C 34645.6 hPa Calm     86 % 0 mm 0.0 W/m2 CLR
04:00 -15.9 °C -17.1 °C 34645.6 hPa WSW 9 km/h 9 km/h 86 % 0 mm 0.0 W/m2 CLR
04:05 -15.8 °C -17.1 °C 34645.6 hPa Calm     85 % 0 mm 0.0 W/m2 CLR
04:10 -15.8 °C -17.1 °C 34645.6 hPa Calm     85 % 0 mm 0.0 W/m2 CLR
04:15 -15.9 °C -17.2 °C 34645.6 hPa Calm     84 % 0 mm 0.0 W/m2 CLR
04:20 -15.9 °C -17.3 °C 34645.6 hPa Calm     84 % 0 mm 0.0 W/m2 CLR
04:25 -16 °C -17.3 °C 34645.6 hPa Calm     85 % 0 mm 0.0 W/m2 CLR
04:30 -16.1 °C -17.3 °C 34645.6 hPa Calm     86 % 0 mm 0.0 W/m2 CLR
04:35 -16.2 °C -17.3 °C 34645.6 hPa Calm     86 % 0 mm 0.0 W/m2 CLR
04:40 -16.2 °C -17.4 °C 34645.6 hPa Calm     86 % 0 mm 0.0 W/m2 CLR
04:45 -16.3 °C -17.4 °C 34645.6 hPa Calm     86 % 0 mm 0.0 W/m2 CLR
04:50 -16.3 °C -17.4 °C 34645.6 hPa Calm     86 % 0 mm 0.0 W/m2 CLR
04:55 -16.3 °C -17.4 °C 34645.6 hPa Calm     87 % 0 mm 0.0 W/m2 CLR
05:00 -16.3 °C -17.4 °C 34645.6 hPa Calm     87 % 0 mm 0.0 W/m2 CLR
05:05 -16.4 °C -17.4 °C 34645.6 hPa Calm     87 % 0 mm 0.0 W/m2 CLR
05:10 -16.4 °C -17.5 °C 34645.6 hPa Calm     87 % 0 mm 0.0 W/m2 CLR
05:15 -16.4 °C -17.5 °C 34659.1 hPa Calm     87 % 0 mm 0.0 W/m2 CLR
05:20 -16.4 °C -17.4 °C 34659.1 hPa Calm     87 % 0 mm 0.0 W/m2 CLR
05:25 -16.4 °C -17.6 °C 34659.1 hPa Calm     87 % 0 mm 0.0 W/m2 CLR
05:30 -16.5 °C -17.6 °C 34659.1 hPa Calm     87 % 0 mm 0.0 W/m2 CLR
05:35 -16.6 °C -17.6 °C 34659.1 hPa Calm     87 % 0 mm 0.0 W/m2 CLR
05:40 -16.6 °C -17.7 °C 34659.1 hPa Calm     87 % 0 mm 0.0 W/m2 CLR
05:45 -16.6 °C -17.6 °C 34659.1 hPa Calm     88 % 0 mm 0.0 W/m2 CLR
05:50 -16.6 °C -17.6 °C 34659.1 hPa Calm     88 % 0 mm 0.0 W/m2 CLR
05:55 -16.6 °C -17.6 °C 34659.1 hPa SW 9 km/h 9 km/h 88 % 0 mm 0.0 W/m2 CLR
06:00 -16.6 °C -17.6 °C 34659.1 hPa WSW 9 km/h 9 km/h 88 % 0 mm 0.0 W/m2 CLR
06:05 -16.6 °C -17.6 °C 34659.1 hPa SW 9 km/h 9 km/h 88 % 0 mm 0.0 W/m2 CLR
06:10 -16.6 °C -17.7 °C 34659.1 hPa SSW 6 km/h 6 km/h 87 % 0 mm 0.0 W/m2 CLR
06:15 -16.6 °C -17.7 °C 34659.1 hPa Calm   0.5 km/h 87 % 0 mm 0.0 W/m2 CLR
06:20 -16.6 °C -17.7 °C 34659.1 hPa Calm     87 % 0 mm 0.0 W/m2 CLR
06:25 -16.6 °C -17.7 °C 34659.1 hPa Calm     87 % 0 mm 0.0 W/m2 CLR
06:30 -16.6 °C -17.7 °C 34659.1 hPa Calm     87 % 0 mm 0.0 W/m2 CLR
06:35 -16.7 °C -17.7 °C 34659.1 hPa Calm     87 % 0 mm 0.0 W/m2 CLR
06:40 -16.7 °C -17.8 °C 34669.3 hPa Calm     87 % 0 mm 0.0 W/m2 CLR
06:45 -16.7 °C -17.8 °C 34669.3 hPa Calm     87 % 0 mm 0.0 W/m2 CLR
06:50 -16.8 °C -17.8 °C 34669.3 hPa Calm     87 % 0 mm 0.0 W/m2 CLR
06:55 -16.7 °C -17.7 °C 34669.3 hPa SW 9 km/h 9 km/h 88 % 0 mm 0.0 W/m2 CLR
07:00 -16.6 °C -17.7 °C 34669.3 hPa Calm     87 % 0 mm 0.0 W/m2 OVC
07:05 -16.6 °C -17.7 °C 34669.3 hPa Calm     87 % 0 mm 0.0 W/m2 OVC
07:10 -16.7 °C -17.7 °C 34682.8 hPa Calm     87 % 0 mm 5.0 W/m2 OVC
07:15 -16.7 °C -17.7 °C 34682.8 hPa Calm     87 % 0 mm 9.0 W/m2 BKN
07:20 -16.7 °C -17.8 °C 34682.8 hPa Calm     87 % 0 mm 11.0 W/m2 BKN
07:25 -16.7 °C -17.8 °C 34682.8 hPa Calm     87 % 0 mm 12.0 W/m2 BKN
07:30 -16.7 °C -17.8 °C 34682.8 hPa WSW 3.1 km/h   87 % 0 mm 14.0 W/m2 BKN
07:35 -16.7 °C -17.7 °C 34682.8 hPa Calm     87 % 0 mm 19.0 W/m2 BKN
07:40 -16.6 °C -17.6 °C 34682.8 hPa Calm     88 % 0 mm 30.0 W/m2 BKN
07:45 -16.5 °C -17.6 °C 34682.8 hPa Calm     87 % 0 mm 42.0 W/m2 BKN
07:50 -16.3 °C -17.3 °C 34682.8 hPa Calm     88 % 0 mm 60.0 W/m2 SCT
07:55 -16.2 °C -17.3 °C 34682.8 hPa Calm     87 % 0 mm 76.0 W/m2 FEW
08:00 -16 °C -17.1 °C 34693 hPa Calm     87 % 0 mm 88.0 W/m2 CLR
08:05 -15.9 °C -17.1 °C 34693 hPa Calm     85 % 0 mm 100.0 W/m2 FEW
08:10 -15.7 °C -17 °C 34693 hPa Calm     85 % 0 mm 116.0 W/m2 CLR
08:11 -15.7 °C -17 °C 34693 hPa Calm     85 % 0 mm 118.0 W/m2 CLR
08:16 -15.6 °C -16.8 °C 34693 hPa Calm     85 % 0 mm 91.0 W/m2 CLR
08:21 -15.3 °C -16.6 °C 34693 hPa Calm     84 % 0 mm 142.0 W/m2 CLR
08:26 -15.1 °C -16.7 °C 34682.8 hPa Calm     82 % 0 mm 174.0 W/m2 CLR
08:31 -15 °C -16.8 °C 34682.8 hPa Calm     80 % 0 mm 192.0 W/m2 CLR
08:36 -14.9 °C -16.8 °C 34682.8 hPa Calm     79 % 0 mm 211.0 W/m2 CLR
08:41 -14.6 °C -16.5 °C 34693 hPa Calm     79 % 0 mm 230.0 W/m2 CLR
08:46 -14.3 °C -16.3 °C 34682.8 hPa Calm     77 % 0 mm 251.0 W/m2 CLR
08:51 -13.9 °C -16.2 °C 34693 hPa Calm     75 % 0 mm 267.0 W/m2 CLR
08:56 -13.5 °C -16.3 °C 34693 hPa Calm     71 % 0 mm 283.0 W/m2 CLR
09:01 -13.2 °C -16.3 °C 34693 hPa Calm     68 % 0 mm 297.0 W/m2 CLR
09:06 -12.9 °C -16.1 °C 34693 hPa Calm     68 % 0 mm 316.0 W/m2 CLR
09:11 -12.7 °C -15.9 °C 34682.8 hPa Calm     67 % 0 mm 332.0 W/m2 CLR
09:16 -12.4 °C -16 °C 34682.8 hPa Calm     64 % 0 mm 348.0 W/m2 CLR
09:21 -12.2 °C -16 °C 34682.8 hPa Calm     62 % 0 mm 362.0 W/m2 CLR
09:26 -12 °C -16 °C 34682.8 hPa Calm     61 % 0 mm 380.0 W/m2 CLR
09:31 -11.7 °C -15.2 °C 34682.8 hPa Calm     65 % 0 mm 394.0 W/m2 CLR
09:36 -11.5 °C -15.4 °C 34682.8 hPa Calm     62 % 0 mm 408.0 W/m2 CLR
09:37 -11.4 °C -15.6 °C 34682.8 hPa Calm     60 % 0 mm 408.0 W/m2 CLR
09:42 -11.3 °C -15.9 °C 34682.8 hPa Calm     57 % 0 mm 427.0 W/m2 CLR
09:47 -11.2 °C -16.2 °C 34682.8 hPa Calm     54 % 0 mm 441.0 W/m2 CLR
09:52 -10.9 °C -16.7 °C 34682.8 hPa Calm     49 % 0 mm 457.0 W/m2 CLR
09:57 -10.5 °C -16.3 °C 34682.8 hPa Calm     49 % 0 mm 473.0 W/m2 CLR
10:02 -10.3 °C -16.3 °C 34682.8 hPa Calm     48 % 0 mm 485.0 W/m2 CLR
10:07 -10.1 °C -16.6 °C 34682.8 hPa Calm     45 % 0 mm 499.0 W/m2 CLR
10:12 -9.9 °C -16.5 °C 34682.8 hPa Calm     45 % 0 mm 513.0 W/m2 CLR
10:17 -9.9 °C -16.3 °C 34682.8 hPa ENE 6 km/h   46 % 0 mm 527.0 W/m2 CLR
10:22 -9.9 °C -16.1 °C 34682.8 hPa Calm     47 % 0 mm 540.0 W/m2 CLR
10:27 -9.8 °C -16.2 °C 34682.8 hPa Calm     46 % 0 mm 550.0 W/m2 CLR
10:28 -9.8 °C -16.2 °C 34682.8 hPa Calm     46 % 0 mm 550.0 W/m2 CLR
10:33 -9.7 °C -15.9 °C 34682.8 hPa Calm     47 % 0 mm 564.0 W/m2 CLR
10:38 -9.5 °C -16.1 °C 34682.8 hPa ENE 6 km/h 6 km/h 45 % 0 mm 577.0 W/m2 CLR
10:43 -9.4 °C -16.3 °C 34682.8 hPa Calm     43 % 0 mm 589.0 W/m2 CLR
10:48 -9.3 °C -15.9 °C 34682.8 hPa Calm     45 % 0 mm 599.0 W/m2 CLR
10:53 -9.1 °C -16.1 °C 34682.8 hPa ENE 6 km/h 6 km/h 43 % 0 mm 612.0 W/m2 CLR
10:58 -9.1 °C -16.1 °C 34669.3 hPa ENE 10.3 km/h 10.3 km/h 43 % 0 mm 621.0 W/m2 CLR
11:03 -9 °C -16.7 °C 34669.3 hPa ENE 9 km/h   39 % 0 mm 631.0 W/m2 CLR
11:08 -8.9 °C -16.4 °C 34669.3 hPa ENE 10.3 km/h 10.3 km/h 40 % 0 mm 640.0 W/m2 CLR
11:13 -8.8 °C -17.2 °C 34669.3 hPa Calm     36 % 0 mm 652.0 W/m2 CLR
11:18 -8.7 °C -16.9 °C 34669.3 hPa East 6 km/h 6 km/h 37 % 0 mm 661.0 W/m2 CLR
11:23 -8.7 °C -17.1 °C 34669.3 hPa ENE 9 km/h 9 km/h 36 % 0 mm 671.0 W/m2 CLR
11:28 -8.6 °C -16.6 °C 34669.3 hPa ENE 9 km/h 9 km/h 38 % 0 mm 670.0 W/m2 CLR
11:33 -8.5 °C -16.9 °C 34669.3 hPa East 9 km/h 9 km/h 36 % 0 mm 687.0 W/m2 CLR
11:38 -8.5 °C -16.9 °C 34659.1 hPa NE 9 km/h 9 km/h 36 % 0 mm 693.0 W/m2 CLR
11:43 -8.4 °C -16.7 °C 34659.1 hPa Calm     37 % 0 mm 705.0 W/m2 CLR
11:48 -8.3 °C -16.3 °C 34659.1 hPa ENE 15 km/h 15 km/h 38 % 0 mm 707.0 W/m2 CLR
11:53 -8.2 °C -16.2 °C 34659.1 hPa ENE 9 km/h 9 km/h 38 % 0 mm 715.0 W/m2 CLR
11:58 -8.1 °C -16.2 °C 34659.1 hPa ENE 11.9 km/h 11.9 km/h 38 % 0 mm 722.0 W/m2 CLR
12:03 -8.1 °C -16.3 °C 34659.1 hPa Calm     37 % 0 mm 731.0 W/m2 CLR
12:08 -8 °C -16.3 °C 34659.1 hPa NE 6 km/h 6 km/h 37 % 0 mm 729.0 W/m2 CLR
12:13 -7.9 °C -16.3 °C 34645.6 hPa NE 12.9 km/h 12.9 km/h 36 % 0 mm 737.0 W/m2 CLR
12:18 -7.8 °C -16.8 °C 34645.6 hPa Calm     34 % 0 mm 738.0 W/m2 CLR
12:23 -7.7 °C -16 °C 34645.6 hPa NE 11.9 km/h 11.9 km/h 37 % 0 mm 745.0 W/m2 CLR
12:28 -7.6 °C -16.6 °C 34645.6 hPa Calm     34 % 0 mm 751.0 W/m2 CLR
12:33 -7.6 °C -16.3 °C 34645.6 hPa ENE 10.3 km/h 10.3 km/h 35 % 0 mm 751.0 W/m2 CLR
12:38 -7.4 °C -16.7 °C 34645.6 hPa Calm     33 % 0 mm 758.0 W/m2 CLR
12:43 -7.3 °C -16.3 °C 34645.6 hPa NNE 11.9 km/h 11.9 km/h 34 % 0 mm 763.0 W/m2 CLR
12:48 -7.3 °C -16.1 °C 34645.6 hPa ENE 15 km/h 15 km/h 35 % 0 mm 761.0 W/m2 CLR
12:53 -7.3 °C -16.3 °C 34635.4 hPa NE 12.9 km/h 12.9 km/h 34 % 0 mm 768.0 W/m2 CLR
12:58 -7.1 °C -16.9 °C 34635.4 hPa Calm     31 % 0 mm 765.0 W/m2 CLR
13:03 -7.1 °C -16.6 °C 34635.4 hPa NE 15 km/h 15 km/h 32 % 0 mm 770.0 W/m2 CLR
13:08 -7 °C -16.5 °C 34635.4 hPa ENE 15 km/h 15 km/h 32 % 0 mm 770.0 W/m2 CLR
13:13 -7.1 °C -16.6 °C 34625.2 hPa North 12.9 km/h 12.9 km/h 32 % 0 mm 770.0 W/m2 CLR
13:18 -7.1 °C -16.6 °C 34625.2 hPa North 9 km/h 9 km/h 32 % 0 mm 766.0 W/m2 CLR
13:23 -7 °C -16.5 °C 34625.2 hPa North 7.7 km/h 7.7 km/h 32 % 0 mm 766.0 W/m2 CLR
13:28 -7 °C -16.3 °C 34625.2 hPa ENE 10.3 km/h 10.3 km/h 33 % 0 mm 766.0 W/m2 CLR
13:33 -6.9 °C -15.9 °C 34625.2 hPa Calm     34 % 0 mm 765.0 W/m2 CLR
13:38 -6.8 °C -16.6 °C 34625.2 hPa ENE 5.1 km/h 5.1 km/h 31 % 0 mm 763.0 W/m2 CLR
13:43 -6.6 °C -16.4 °C 34625.2 hPa NE 15 km/h 15 km/h 31 % 0 mm 759.0 W/m2 CLR
13:48 -6.6 °C -16.4 °C 34611.7 hPa NNE 17.9 km/h 17.9 km/h 31 % 0 mm 758.0 W/m2 CLR
13:53 -6.7 °C -16.2 °C 34611.7 hPa NE 18.2 km/h 18.2 km/h 32 % 0 mm 752.0 W/m2 CLR
13:58 -6.7 °C -16.5 °C 34611.7 hPa NNE 9 km/h 9 km/h 31 % 0 mm 749.0 W/m2 CLR
14:03 -6.7 °C -16 °C 34611.7 hPa NNW 15 km/h 15 km/h 33 % 0 mm 745.0 W/m2 CLR
14:08 -6.7 °C -15.6 °C 34611.7 hPa NE 23.8 km/h 23.8 km/h 35 % 0 mm 738.0 W/m2 CLR
14:13 -6.7 °C -15.6 °C 34601.5 hPa NNE 20.8 km/h 20.8 km/h 35 % 0 mm 735.0 W/m2 CLR
14:18 -6.7 °C -15.8 °C 34601.5 hPa ENE 26.9 km/h 26.9 km/h 34 % 0 mm 729.0 W/m2 CLR
14:23 -6.6 °C -15.7 °C 34601.5 hPa NE 15.6 km/h 15.6 km/h 34 % 0 mm 722.0 W/m2 CLR
14:28 -6.5 °C -16.1 °C 34601.5 hPa ENE 23.8 km/h 23.8 km/h 32 % 0 mm 715.0 W/m2 CLR
14:33 -6.5 °C -16.1 °C 34601.5 hPa NNE 23.8 km/h 23.8 km/h 32 % 0 mm 710.0 W/m2 CLR
14:38 -6.4 °C -16.6 °C 34591.4 hPa NNE 26.9 km/h 26.9 km/h 30 % 0 mm 701.0 W/m2 CLR
14:43 -6.4 °C -16.3 °C 34591.4 hPa NE 29.8 km/h 29.8 km/h 31 % 0 mm 694.0 W/m2 CLR
14:48 -6.4 °C -16.3 °C 34591.4 hPa North 17.9 km/h 17.9 km/h 31 % 0 mm 689.0 W/m2 CLR
14:53 -6.4 °C -16 °C 34591.4 hPa NNE 15 km/h 15 km/h 32 % 0 mm 679.0 W/m2 CLR
14:58 -6.3 °C -15.9 °C 34591.4 hPa NE 26.9 km/h 26.9 km/h 32 % 0 mm 671.0 W/m2 CLR
15:03 -6.2 °C -16.1 °C 34577.8 hPa NE 29.8 km/h 29.8 km/h 31 % 0 mm 663.0 W/m2 CLR
15:08 -6.3 °C -16.4 °C 34577.8 hPa North 9 km/h 9 km/h 30 % 0 mm 652.0 W/m2 CLR
15:13 -6.2 °C -16.3 °C 34577.8 hPa North 20.9 km/h 20.9 km/h 30 % 0 mm 640.0 W/m2 CLR
15:18 -6.1 °C -16.3 °C 34577.8 hPa NE 32.8 km/h 32.8 km/h 30 % 0 mm 631.0 W/m2 CLR
15:19 -6.1 °C -16.3 °C 34577.8 hPa ENE 32.8 km/h 32.8 km/h 30 % 0 mm 631.0 W/m2 CLR
15:24 -6.1 °C -16.2 °C 34577.8 hPa ENE 9 km/h 9 km/h 30 % 0 mm 622.0 W/m2 CLR
15:29 -6 °C -16.7 °C 34577.8 hPa ENE 18.2 km/h 18.2 km/h 28 % 0 mm 610.0 W/m2 CLR
15:34 -6.1 °C -16.4 °C 34567.7 hPa NE 26.9 km/h 26.9 km/h 29 % 0 mm 599.0 W/m2 CLR
15:39 -6.1 °C -17 °C 34567.7 hPa NE 26.9 km/h 26.9 km/h 27 % 0 mm 587.0 W/m2 CLR
15:44 -6 °C -17 °C 34567.7 hPa ENE 23.8 km/h 23.8 km/h 27 % 0 mm 577.0 W/m2 CLR
15:49 -6 °C -17 °C 34567.7 hPa NE 29.8 km/h 29.8 km/h 27 % 0 mm 566.0 W/m2 CLR
15:54 -6 °C -17 °C 34567.7 hPa ENE 26.9 km/h 26.9 km/h 27 % 0 mm 552.0 W/m2 CLR
15:59 -5.9 °C -16.7 °C 34567.7 hPa NE 6 km/h 9.3 km/h 28 % 0 mm 540.0 W/m2 CLR
16:04 -5.9 °C -16.9 °C 34567.7 hPa NE 25.9 km/h 25.9 km/h 27 % 0 mm 527.0 W/m2 CLR
16:09 -5.9 °C -16.8 °C 34567.7 hPa East 11.9 km/h 11.9 km/h 27 % 0 mm 517.0 W/m2 CLR
16:14 -5.9 °C -17.8 °C 34567.7 hPa ESE 20.8 km/h 20.8 km/h 24 % 0 mm 501.0 W/m2 CLR
16:19 -5.9 °C -17.8 °C 34567.7 hPa ENE 9 km/h 9 km/h 24 % 0 mm 487.0 W/m2 CLR
16:24 -5.9 °C -17.8 °C 34554.1 hPa East 15 km/h 15 km/h 24 % 0 mm 475.0 W/m2 CLR
16:29 -5.9 °C -17.8 °C 34554.1 hPa East 9 km/h 9 km/h 24 % 0 mm 461.0 W/m2 CLR
16:34 -5.9 °C -18.4 °C 34554.1 hPa East 11.9 km/h 12.2 km/h 22 % 0 mm 443.0 W/m2 CLR
16:39 -5.9 °C -18.2 °C 34554.1 hPa ENE 23.8 km/h 23.8 km/h 23 % 0 mm 427.0 W/m2 CLR
16:44 -5.9 °C -18.5 °C 34554.1 hPa East 15.6 km/h 15.6 km/h 22 % 0 mm 413.0 W/m2 CLR
16:49 -6 °C -18.6 °C 34554.1 hPa ESE 9 km/h 9 km/h 22 % 0 mm 399.0 W/m2 CLR
16:54 -6.1 °C -17.9 °C 34554.1 hPa East 12.9 km/h 12.9 km/h 24 % 0 mm 380.0 W/m2 CLR
16:59 -6.2 °C -18 °C 34554.1 hPa NE 15 km/h 15 km/h 24 % 0 mm 366.0 W/m2 CLR
17:04 -6.1 °C -17.9 °C 34554.1 hPa ENE 15 km/h 15 km/h 24 % 0 mm 350.0 W/m2 CLR
17:09 -6.1 °C -17.4 °C 34554.1 hPa ENE 15 km/h 15 km/h 26 % 0 mm 334.0 W/m2 CLR
17:14 -6.2 °C -17.1 °C 34554.1 hPa East 20.9 km/h 20.9 km/h 27 % 0 mm 316.0 W/m2 CLR
17:19 -6.2 °C -16.9 °C 34554.1 hPa ESE 17.9 km/h 17.9 km/h 28 % 0 mm 297.0 W/m2 CLR
17:24 -6.3 °C -16.9 °C 34554.1 hPa ESE 15.6 km/h 15.6 km/h 28 % 0 mm 281.0 W/m2 CLR
17:29 -6.3 °C -16.7 °C 34554.1 hPa East 15 km/h 15 km/h 29 % 0 mm 264.0 W/m2 CLR
17:34 -6.4 °C -16.5 °C 34554.1 hPa East 15.6 km/h 15.6 km/h 30 % 0 mm 248.0 W/m2 CLR
17:39 -6.4 °C -16.8 °C 34554.1 hPa SE 15.6 km/h 15.6 km/h 29 % 0 mm 227.0 W/m2 CLR
17:44 -6.6 °C -16.9 °C 34554.1 hPa ESE 17.9 km/h 17.9 km/h 29 % 0 mm 209.0 W/m2 CLR
17:49 -6.6 °C -16.4 °C 34554.1 hPa ESE 9 km/h 9 km/h 31 % 0 mm 190.0 W/m2 CLR
17:54 -6.6 °C -16.7 °C 34567.7 hPa ESE 12.9 km/h 12.9 km/h 30 % 0 mm 171.0 W/m2 CLR
17:59 -6.7 °C -16.5 °C 34567.7 hPa ESE 15 km/h 15 km/h 31 % 0 mm 151.0 W/m2 CLR
18:04 -6.8 °C -16.3 °C 34554.1 hPa SE 20.9 km/h 20.9 km/h 32 % 0 mm 134.0 W/m2 CLR
18:09 -6.8 °C -16.4 °C 34567.7 hPa ESE 17.9 km/h 17.9 km/h 32 % 0 mm 116.0 W/m2 CLR
18:14 -6.9 °C -16.4 °C 34567.7 hPa SE 12.9 km/h 12.9 km/h 32 % 0 mm 98.0 W/m2 CLR
18:19 -7 °C -16.5 °C 34567.7 hPa ESE 12.9 km/h 12.9 km/h 32 % 0 mm 84.0 W/m2 FEW
18:24 -7.1 °C -16.3 °C 34567.7 hPa SE 9 km/h 9 km/h 33 % 0 mm 65.0 W/m2 SCT
18:29 -7.1 °C -16.3 °C 34567.7 hPa ESE 9 km/h 9 km/h 33 % 0 mm 51.0 W/m2 SCT
18:34 -7.2 °C -16.2 °C 34567.7 hPa ESE 9 km/h 9 km/h 34 % 0 mm 39.0 W/m2 BKN
18:39 -7.3 °C -16.3 °C 34567.7 hPa Calm     34 % 0 mm 30.0 W/m2 BKN
18:44 -7.4 °C -16.2 °C 34567.7 hPa Calm     35 % 0 mm 19.0 W/m2 BKN
18:49 -7.4 °C -16.2 °C 34567.7 hPa Calm     35 % 0 mm 14.0 W/m2 BKN
18:50 -7.5 °C -16.3 °C 34567.7 hPa Calm     35 % 0 mm 14.0 W/m2 BKN
18:55 -7.6 °C -16.1 °C 34567.7 hPa Calm     36 % 0 mm 12.0 W/m2 BKN
19:00 -7.7 °C -16.2 °C 34567.7 hPa Calm     36 % 0 mm 9.0 W/m2 BKN
19:05 -7.9 °C -16.3 °C 34567.7 hPa Calm     36 % 0 mm 7.0 W/m2 BKN
19:10 -8 °C -16.1 °C 34567.7 hPa Calm     38 % 0 mm 0.0 W/m2 OVC
19:15 -8.1 °C -16.2 °C 34577.8 hPa Calm     38 % 0 mm 0.0 W/m2 OVC
19:20 -8.2 °C -16.3 °C 34577.8 hPa Calm     38 % 0 mm 0.0 W/m2 CLR
19:25 -8.4 °C -15.6 °C 34577.8 hPa Calm     42 % 0 mm 0.0 W/m2 CLR
19:30 -8.7 °C -15.9 °C 34577.8 hPa Calm     42 % 0 mm 0.0 W/m2 CLR
19:35 -8.8 °C -15.9 °C 34577.8 hPa Calm     43 % 0 mm 0.0 W/m2 CLR
19:40 -9 °C -15.7 °C 34591.4 hPa Calm     45 % 0 mm 0.0 W/m2 CLR
19:45 -9.2 °C -15.1 °C 34591.4 hPa Calm     49 % 0 mm 0.0 W/m2 CLR
19:50 -9.5 °C -15.4 °C 34591.4 hPa Calm     49 % 0 mm 0.0 W/m2 CLR
19:51 -9.6 °C -15.3 °C 34591.4 hPa Calm     50 % 0 mm 0.0 W/m2 CLR
19:56 -9.9 °C -15.4 °C 34591.4 hPa Calm     51 % 0 mm 0.0 W/m2 CLR
20:01 -10.2 °C -15.4 °C 34591.4 hPa Calm     53 % 0 mm 0.0 W/m2 CLR
20:06 -10.3 °C -15.3 °C 34591.4 hPa Calm     55 % 0 mm 0.0 W/m2 CLR
20:11 -10.6 °C -15.2 °C 34591.4 hPa Calm     57 % 0 mm 0.0 W/m2 CLR
20:16 -10.9 °C -15.2 °C 34591.4 hPa Calm     59 % 0 mm 0.0 W/m2 CLR
20:21 -11.2 °C -15.2 °C 34591.4 hPa Calm     61 % 0 mm 0.0 W/m2 CLR
20:26 -11.3 °C -15.2 °C 34601.5 hPa Calm     62 % 0 mm 0.0 W/m2 CLR
20:31 -11.5 °C -15.2 °C 34601.5 hPa Calm     63 % 0 mm 0.0 W/m2 CLR
20:36 -11.6 °C -15.3 °C 34601.5 hPa Calm     64 % 0 mm 0.0 W/m2 CLR
20:41 -11.8 °C -15.4 °C 34601.5 hPa Calm     64 % 0 mm 0.0 W/m2 CLR
20:46 -11.9 °C -15.4 °C 34601.5 hPa Calm     65 % 0 mm 0.0 W/m2 CLR
20:51 -12.1 °C -15.4 °C 34601.5 hPa Calm     66 % 0 mm 0.0 W/m2 CLR
20:56 -12.1 °C -15.4 °C 34601.5 hPa Calm     67 % 0 mm 0.0 W/m2 CLR
21:01 -12.2 °C -15.4 °C 34601.5 hPa Calm     68 % 0 mm 0.0 W/m2 CLR
21:06 -12.4 °C -15.4 °C 34611.7 hPa Calm     69 % 0 mm 0.0 W/m2 CLR
21:11 -12.6 °C -15.3 °C 34611.7 hPa Calm     71 % 0 mm 0.0 W/m2 CLR
21:16 -12.7 °C -15.3 °C 34611.7 hPa Calm     72 % 0 mm 0.0 W/m2 CLR
21:21 -12.7 °C -15.4 °C 34611.7 hPa Calm     72 % 0 mm 0.0 W/m2 CLR
21:26 -12.8 °C -15.3 °C 34611.7 hPa Calm     73 % 0 mm 0.0 W/m2 CLR
21:31 -12.8 °C -15.4 °C 34611.7 hPa Calm     73 % 0 mm 0.0 W/m2 CLR
21:36 -12.9 °C -15.4 °C 34625.2 hPa Calm     73 % 0 mm 0.0 W/m2 CLR
21:41 -13.1 °C -15.5 °C 34625.2 hPa Calm     74 % 0 mm 0.0 W/m2 CLR
21:46 -13.1 °C -15.6 °C 34625.2 hPa Calm     74 % 0 mm 0.0 W/m2 CLR
21:51 -13.2 °C -15.5 °C 34625.2 hPa Calm     75 % 0 mm 0.0 W/m2 CLR
21:57 -13.3 °C -15.6 °C 34625.2 hPa Calm     75 % 0 mm 0.0 W/m2 CLR
22:02 -13.4 °C -15.6 °C 34625.2 hPa Calm     76 % 0 mm 0.0 W/m2 CLR
22:07 -13.4 °C -15.7 °C 34625.2 hPa Calm     76 % 0 mm 0.0 W/m2 CLR
22:12 -13.5 °C -15.6 °C 34625.2 hPa Calm     77 % 0 mm 0.0 W/m2 CLR
22:17 -13.6 °C -15.7 °C 34625.2 hPa Calm     77 % 0 mm 0.0 W/m2 CLR
22:22 -13.7 °C -15.7 °C 34625.2 hPa Calm     77 % 0 mm 0.0 W/m2 CLR
22:27 -13.7 °C -15.7 °C 34635.4 hPa Calm     78 % 0 mm 0.0 W/m2 CLR
22:32 -13.8 °C -15.7 °C 34635.4 hPa Calm     79 % 0 mm 0.0 W/m2 CLR
22:37 -13.8 °C -15.7 °C 34625.2 hPa Calm     79 % 0 mm 0.0 W/m2 CLR
22:42 -13.9 °C -15.8 °C 34635.4 hPa Calm     79 % 0 mm 0.0 W/m2 CLR
22:47 -13.8 °C -15.8 °C 34635.4 hPa Calm     78 % 0 mm 0.0 W/m2 CLR
22:52 -13.9 °C -15.9 °C 34635.4 hPa Calm     78 % 0 mm 0.0 W/m2 CLR
22:57 -14 °C -15.9 °C 34625.2 hPa Calm     79 % 0 mm 0.0 W/m2 CLR
23:02 -14.1 °C -15.9 °C 34635.4 hPa Calm     80 % 0 mm 0.0 W/m2 CLR
23:07 -14.2 °C -15.9 °C 34635.4 hPa Calm     80 % 0 mm 0.0 W/m2 CLR
23:12 -14.2 °C -16 °C 34625.2 hPa Calm     80 % 0 mm 0.0 W/m2 CLR
23:17 -14.2 °C -16 °C 34635.4 hPa Calm     80 % 0 mm 0.0 W/m2 CLR
23:18 -14.2 °C -16 °C 34635.4 hPa Calm     80 % 0 mm 0.0 W/m2 CLR
23:23 -14.3 °C -16.1 °C 34635.4 hPa Calm     80 % 0 mm 0.0 W/m2 CLR
23:28 -14.3 °C -16.1 °C 34635.4 hPa Calm     80 % 0 mm 0.0 W/m2 CLR
23:33 -14.3 °C -16 °C 34635.4 hPa Calm     81 % 0 mm 0.0 W/m2 CLR
23:38 -14.4 °C -16.1 °C 34635.4 hPa Calm     81 % 0 mm 0.0 W/m2 CLR
23:43 -14.4 °C -16.1 °C 34635.4 hPa Calm     81 % 0 mm 0.0 W/m2 CLR
23:48 -14.4 °C -16 °C 34635.4 hPa Calm     82 % 0 mm 0.0 W/m2 CLR
23:53 -14.5 °C -16.1 °C 34635.4 hPa Calm     82 % 0 mm 0.0 W/m2 CLR
23:58 -14.6 °C -16.2 °C 34635.4 hPa Calm     82 % 0 mm 0.0 W/m2 CLR
Lo Temps de Massalio
Compliments of Weather Underground - 1.25 mb